Steamboat Springs, CO

7:41 AM MST on December 08, 2016 (GMT -0700)
Steamboat Springs-Adams

Weather History for KSBS - March, 2013

Change the Weather History Date:

Tuesday, March 19, 2013

  Actual Average Record
Temperature  
Mean Temperature 29 °F -  
Max Temperature 40 °F 42 °F 57 °F (1910)
Min Temperature 18 °F 15 °F -20 °F (1965)
Degree Days  
Heating Degree Days 36    
Moisture  
Dew Point 1 °F    
Average Humidity 33    
Maximum Humidity 62    
Minimum Humidity 11    
Precipitation  
Precipitation 0.00 in - - ()
Sea Level Pressure  
Sea Level Pressure 30.16 in    
Wind  
Wind Speed 3 mph (SSE)    
Max Wind Speed 14 mph    
Max Gust Speed 20 mph    
Visibility 10 miles    
Events      
Averages and records for this station are not official NWS values.
T = Trace of Precipitation, MM = Missing Value Source: NWS Daily Summary

Daily Weather History Graph

Daily Weather History Graph

Search for Another Location

Airport or City:

Trip Planner

Search our weather history database for the weather conditions in past years. The results will help you decide how hot, cold, wet, or windy it might be!

Date:

Astronomy

Mar. 19, 2013 Rise Set
Actual Time 7:11 AM MDT 7:18 PM MDT
Civil Twilight 6:44 AM MDT 7:46 PM MDT
Nautical Twilight 6:13 AM MDT 8:17 PM MDT
Astronomical Twilight 5:40 AM MDT 8:50 PM MDT
Moon 12:03 PM MDT (3/19) 2:09 AM MDT (3/19)
Length of Visible Light 13h 01m
Length of Day
12h 06m
Waxing Crescent, 50% of the Moon is Illuminated
Mar 19
Waxing Crescent
Mar 27
Full
Apr 2
Last Quarter
Apr 10
New
Apr 18
First Quarter

Hourly Weather History & Observations

Time (MDT) Temp. Windchill Dew Point Humidity Pressure Visibility Wind Dir Wind Speed Gust Speed Precip Events Conditions
12:15 AM 26.4 °F - 9.3 °F 49% 30.00 in 10.0 mi Calm Calm - N/A   Clear
12:35 AM 25.9 °F - 8.8 °F 48% 29.99 in 10.0 mi Calm Calm - N/A   Clear
12:55 AM 27.1 °F - 7.5 °F 44% 29.99 in 10.0 mi Calm Calm - N/A   Clear
1:15 AM 26.1 °F - 8.6 °F 48% 30.00 in 10.0 mi Calm Calm - N/A   Clear
1:35 AM 24.6 °F 20.3 °F 8.1 °F 49% 30.00 in 10.0 mi East 3.5 mph - N/A   Clear
1:55 AM 23.7 °F 19.3 °F 8.4 °F 52% 30.00 in 10.0 mi ESE 3.5 mph - N/A   Clear
2:15 AM 22.3 °F 16.1 °F 8.4 °F 55% 30.02 in 10.0 mi SE 4.6 mph - N/A   Clear
2:35 AM 21.9 °F 17.2 °F 8.1 °F 55% 30.02 in 10.0 mi ESE 3.5 mph - N/A   Clear
2:55 AM 21.9 °F - 7.9 °F 55% 30.03 in 10.0 mi Calm Calm - N/A   Clear
3:15 AM 23.2 °F - 7.7 °F 52% 30.04 in 10.0 mi Calm Calm - N/A   Clear
3:35 AM 22.6 °F 16.5 °F 6.8 °F 51% 30.04 in 10.0 mi ESE 4.6 mph - N/A   Clear
3:55 AM 19.0 °F 12.3 °F 8.1 °F 62% 30.05 in 10.0 mi East 4.6 mph - N/A   Clear
4:15 AM 21.9 °F 14.5 °F 7.3 °F 54% 30.05 in 10.0 mi East 5.8 mph - N/A   Clear
4:35 AM 22.8 °F 18.2 °F 7.5 °F 52% 30.05 in 10.0 mi ESE 3.5 mph - N/A   Clear
4:55 AM 25.0 °F - 5.7 °F 44% 30.06 in 10.0 mi Calm Calm - N/A   Clear
5:15 AM 24.8 °F 20.5 °F 5.4 °F 44% 30.07 in 10.0 mi WSW 3.5 mph - N/A   Clear
5:35 AM 24.1 °F 19.7 °F 5.5 °F 45% 30.08 in 10.0 mi NE 3.5 mph - N/A   Clear
5:55 AM 23.5 °F - 5.5 °F 46% 30.10 in 10.0 mi Calm Calm - N/A   Clear
6:15 AM 24.6 °F 20.3 °F 5.4 °F 44% 30.10 in 10.0 mi SSE 3.5 mph - N/A   Clear
6:35 AM 20.1 °F - 7.3 °F 58% 30.11 in 10.0 mi Calm Calm - N/A   Clear
6:55 AM 22.8 °F - 6.4 °F 50% 30.12 in 10.0 mi Calm Calm - N/A   Clear
7:15 AM 22.1 °F - 6.3 °F 51% 30.13 in 10.0 mi Calm Calm - N/A   Clear
7:35 AM 22.3 °F - 3.9 °F 45% 30.14 in 10.0 mi Calm Calm - N/A   Clear
7:55 AM 18.9 °F 13.7 °F 6.6 °F 59% 30.15 in 10.0 mi East 3.5 mph - N/A   Clear
8:15 AM 21.0 °F - 7.0 °F 55% 30.16 in 10.0 mi Calm Calm - N/A   Clear
8:35 AM 22.3 °F 14.9 °F 7.3 °F 53% 30.16 in 10.0 mi SE 5.8 mph - N/A   Clear
8:55 AM 24.3 °F 19.9 °F 6.8 °F 47% 30.18 in 10.0 mi ESE 3.5 mph - N/A   Clear
9:15 AM 27.0 °F - 6.6 °F 42% 30.18 in 10.0 mi Calm Calm - N/A   Clear
9:35 AM 29.1 °F - 5.7 °F 37% 30.18 in 10.0 mi Calm Calm - N/A   Clear
9:55 AM 30.9 °F - 3.4 °F 31% 30.19 in 10.0 mi Calm Calm - N/A   Clear
10:15 AM 31.1 °F 27.7 °F 1.4 °F 28% 30.19 in 10.0 mi SSE 3.5 mph - N/A   Clear
10:35 AM 32.0 °F 26.4 °F 2.8 °F 29% 30.20 in 10.0 mi ESE 5.8 mph - N/A   Clear
10:55 AM 32.2 °F - -0.6 °F 25% 30.20 in 10.0 mi Calm Calm - N/A   Clear
11:15 AM 33.3 °F - -4.7 °F 20% 30.21 in 10.0 mi Calm Calm - N/A   Clear
11:35 AM 33.6 °F - -3.3 °F 21% 30.21 in 10.0 mi Calm Calm - N/A   Clear
11:55 AM 34.7 °F - -4.9 °F 18% 30.21 in 10.0 mi Calm Calm - N/A   Clear
12:15 PM 35.6 °F - -6.5 °F 16% 30.21 in 10.0 mi Calm Calm - N/A   Clear
12:35 PM 36.0 °F 33.3 °F -7.4 °F 16% 30.21 in 10.0 mi SSW 3.5 mph - N/A   Clear
12:55 PM 37.2 °F 34.7 °F -6.9 °F 15% 30.21 in 10.0 mi SSE 3.5 mph - N/A   Clear
1:15 PM 38.1 °F - -9.0 °F 13% 30.21 in 10.0 mi Calm Calm - N/A   Clear
1:35 PM 37.8 °F 31.3 °F -12.3 °F 11% 30.20 in 10.0 mi WSW 9.2 mph 16.1 mph N/A   Clear
1:55 PM 37.9 °F 31.5 °F -11.4 °F 12% 30.20 in 10.0 mi SW 9.2 mph - N/A   Clear
2:15 PM 38.3 °F 31.9 °F -6.2 °F 15% 30.20 in 10.0 mi WSW 9.2 mph - N/A   Clear
2:35 PM 39.4 °F 33.8 °F -8.0 °F 13% 30.20 in 10.0 mi WSW 8.1 mph - N/A   Clear
2:55 PM 39.6 °F 32.1 °F -4.4 °F 16% 30.19 in 10.0 mi WSW 12.7 mph 18.4 mph N/A   Clear
3:15 PM 40.1 °F 33.6 °F -4.5 °F 15% 30.19 in 10.0 mi West 10.4 mph - N/A   Clear
3:35 PM 39.6 °F 33.0 °F -4.2 °F 16% 30.19 in 10.0 mi WSW 10.4 mph 19.6 mph N/A   Clear
3:55 PM 39.7 °F 33.2 °F -8.1 °F 13% 30.19 in 10.0 mi WSW 10.4 mph 19.6 mph N/A   Clear
4:15 PM 39.7 °F 31.9 °F -4.5 °F 15% 30.19 in 10.0 mi SW 13.8 mph - N/A   Clear
4:35 PM 39.2 °F 32.0 °F -4.5 °F 16% 30.19 in 10.0 mi WSW 11.5 mph - N/A   Clear
4:55 PM 40.1 °F 33.6 °F -3.3 °F 16% 30.20 in 10.0 mi WSW 10.4 mph - N/A   Clear
5:15 PM 40.1 °F 35.3 °F -3.8 °F 16% 30.20 in 10.0 mi WSW 6.9 mph - N/A   Clear
5:35 PM 39.4 °F 33.8 °F -5.3 °F 15% 30.20 in 10.0 mi SW 8.1 mph - N/A   Clear
5:55 PM 38.7 °F 36.3 °F -5.1 °F 16% 30.20 in 10.0 mi SW 3.5 mph - N/A   Clear
6:15 PM 37.2 °F - -1.5 °F 19% 30.20 in 10.0 mi Calm Calm - N/A   Clear
6:35 PM 36.9 °F - -3.1 °F 18% 30.20 in 10.0 mi Calm Calm - N/A   Clear
6:55 PM 36.0 °F - -5.4 °F 17% 30.20 in 10.0 mi Calm Calm - N/A   Clear
7:15 PM 34.2 °F - -4.0 °F 20% 30.20 in 10.0 mi Calm Calm - N/A   Clear
7:35 PM 34.5 °F - -9.2 °F 15% 30.20 in 10.0 mi Calm Calm - N/A   Clear
7:55 PM 32.2 °F - -1.7 °F 24% 30.21 in 10.0 mi Calm Calm - N/A   Clear
8:15 PM 31.6 °F 28.3 °F -1.7 °F 24% 30.21 in 10.0 mi ENE 3.5 mph - N/A   Clear
8:35 PM 31.1 °F 27.7 °F -1.7 °F 25% 30.21 in 10.0 mi ESE 3.5 mph - N/A   Clear
8:55 PM 28.8 °F 22.6 °F 1.4 °F 31% 30.22 in 10.0 mi East 5.8 mph - N/A   Clear
9:15 PM 31.1 °F 26.4 °F -3.3 °F 23% 30.23 in 10.0 mi East 4.6 mph - N/A   Clear
9:35 PM 29.8 °F 24.9 °F -1.3 °F 26% 30.23 in 10.0 mi ESE 4.6 mph - N/A   Clear
9:55 PM 25.9 °F 19.2 °F 3.0 °F 38% 30.24 in 10.0 mi ESE 5.8 mph - N/A   Clear
10:15 PM 26.6 °F - 0.5 °F 33% 30.24 in 10.0 mi Calm Calm - N/A   Clear
10:35 PM 25.2 °F - 3.0 °F 39% 30.24 in 10.0 mi Calm Calm - N/A   Clear
10:55 PM 25.3 °F - 1.6 °F 36% 30.24 in 10.0 mi Calm Calm - N/A   Clear
11:15 PM 25.0 °F - 1.6 °F 36% 30.24 in 10.0 mi Calm Calm - N/A   Clear
11:35 PM 23.9 °F - 1.2 °F 38% 30.25 in 10.0 mi Calm Calm - N/A   Clear
11:55 PM 22.1 °F - 2.3 °F 42% 30.25 in 10.0 mi Calm Calm - N/A   Clear